PRIVATE WETTERSTATION BILLIGHEIM-ALLFELD                       ZURCK
Wetterdaten: Donnerstag, 07.04.2022
Datum Zeit Temp. A. Temp. A. min Temp. A. max Feuchte A. Luftdruck Regen Wind Richtung Richtung Sonnenschein ET Solar Taupunkt Windchill Windben Empfang
07.04.2022 00:00 10,0 C 9,8 C 10,1 C 82 % 1000,7 hPa 0,0 l/m 11,3 km/h (2 Bft) S-SW 202 0 min 0,025 mm 0 W/m 7,1 C 6,9 C 30,6 km/h (5 Bft) 97 %
07.04.2022 00:10 10,1 C 10,1 C 10,1 C 82 % 1000,7 hPa 0,0 l/m 11,3 km/h (2 Bft) S-SW 202 0 min 0,000 mm 0 W/m 7,2 C 7,0 C 20,9 km/h (4 Bft) 78 %
07.04.2022 00:20 10,2 C 10,1 C 10,2 C 82 % 1000,7 hPa 0,0 l/m 12,9 km/h (3 Bft) S-SW 202 0 min 0,000 mm 0 W/m 7,3 C 6,3 C 25,7 km/h (4 Bft) 97 %
07.04.2022 00:30 10,0 C 10,0 C 10,2 C 83 % 1000,6 hPa 0,0 l/m 14,5 km/h (3 Bft) S-SW 202 0 min 0,000 mm 0 W/m 7,2 C 5,3 C 29,0 km/h (5 Bft) 97 %
07.04.2022 00:40 9,9 C 9,9 C 10,0 C 84 % 1000,5 hPa 0,0 l/m 11,3 km/h (2 Bft) S-SW 202 0 min 0,000 mm 0 W/m 7,3 C 6,8 C 25,7 km/h (4 Bft) 97 %
07.04.2022 00:50 9,9 C 9,8 C 9,9 C 84 % 1000,4 hPa 0,0 l/m 12,9 km/h (3 Bft) S-SW 202 0 min 0,000 mm 0 W/m 7,3 C 6,0 C 25,7 km/h (4 Bft) 97 %
07.04.2022 01:00 9,9 C 9,9 C 9,9 C 84 % 1000,5 hPa 0,0 l/m 14,5 km/h (3 Bft) S-SW 202 0 min 0,025 mm 0 W/m 7,3 C 5,2 C 25,7 km/h (4 Bft) 89 %
07.04.2022 01:10 9,8 C 9,8 C 9,9 C 85 % 1000,4 hPa 0,0 l/m 11,3 km/h (2 Bft) S-SW 202 0 min 0,000 mm 0 W/m 7,4 C 6,6 C 24,1 km/h (4 Bft) 97 %
07.04.2022 01:20 9,8 C 9,8 C 9,9 C 86 % 1000,7 hPa 0,2 l/m 12,9 km/h (3 Bft) W-SW 247 0 min 0,000 mm 0 W/m 7,6 C 5,8 C 35,4 km/h (5 Bft) 98 %
07.04.2022 01:30 9,7 C 9,7 C 9,8 C 88 % 1000,5 hPa 0,2 l/m 14,5 km/h (3 Bft) SW 225 0 min 0,000 mm 0 W/m 7,8 C 5,0 C 30,6 km/h (5 Bft) 97 %
07.04.2022 01:40 9,5 C 9,5 C 9,7 C 89 % 1000,7 hPa 0,2 l/m 12,9 km/h (3 Bft) W 270 0 min 0,000 mm 0 W/m 7,8 C 5,5 C 29,0 km/h (5 Bft) 97 %
07.04.2022 01:50 9,2 C 9,2 C 9,5 C 90 % 1000,6 hPa 0,0 l/m 11,3 km/h (2 Bft) W-SW 247 0 min 0,000 mm 0 W/m 7,6 C 6,0 C 35,4 km/h (5 Bft) 98 %
07.04.2022 02:00 9,0 C 9,0 C 9,2 C 90 % 1000,6 hPa 0,0 l/m 8,0 km/h (2 Bft) W-SW 247 0 min 0,025 mm 0 W/m 7,4 C 7,8 C 24,1 km/h (4 Bft) 98 %
07.04.2022 02:10 8,9 C 8,9 C 9,0 C 90 % 1000,4 hPa 0,2 l/m 9,7 km/h (2 Bft) SW 225 0 min 0,000 mm 0 W/m 7,4 C 6,6 C 25,7 km/h (4 Bft) 97 %
07.04.2022 02:20 8,8 C 8,8 C 8,9 C 90 % 1000,3 hPa 0,0 l/m 6,4 km/h (2 Bft) SW 225 0 min 0,000 mm 0 W/m 7,3 C 8,8 C 27,4 km/h (4 Bft) 97 %
07.04.2022 02:30 8,8 C 8,7 C 8,8 C 90 % 1000,2 hPa 0,0 l/m 8,0 km/h (2 Bft) SW 225 0 min 0,000 mm 0 W/m 7,3 C 7,6 C 25,7 km/h (4 Bft) 98 %
07.04.2022 02:40 8,7 C 8,7 C 8,8 C 90 % 1000,1 hPa 0,0 l/m 6,4 km/h (2 Bft) SW 225 0 min 0,000 mm 0 W/m 7,2 C 8,7 C 22,5 km/h (4 Bft) 98 %
07.04.2022 02:50 8,7 C 8,7 C 8,7 C 90 % 999,7 hPa 0,0 l/m 11,3 km/h (2 Bft) S-SW 202 0 min 0,000 mm 0 W/m 7,2 C 5,4 C 24,1 km/h (4 Bft) 98 %
07.04.2022 03:00 8,7 C 8,7 C 8,7 C 89 % 999,6 hPa 0,0 l/m 8,0 km/h (2 Bft) SW 225 0 min 0,000 mm 0 W/m 7,0 C 7,5 C 22,5 km/h (4 Bft) 98 %
07.04.2022 03:10 8,6 C 8,6 C 8,7 C 87 % 999,5 hPa 0,0 l/m 9,7 km/h (2 Bft) SW 225 0 min 0,000 mm 0 W/m 6,6 C 6,2 C 22,5 km/h (4 Bft) 98 %
07.04.2022 03:20 8,7 C 8,6 C 8,7 C 85 % 999,3 hPa 0,0 l/m 14,5 km/h (3 Bft) SW 225 0 min 0,000 mm 0 W/m 6,3 C 3,8 C 35,4 km/h (5 Bft) 97 %
07.04.2022 03:30 8,7 C 8,7 C 8,7 C 85 % 999,2 hPa 0,0 l/m 14,5 km/h (3 Bft) SW 225 0 min 0,000 mm 0 W/m 6,3 C 3,8 C 30,6 km/h (5 Bft) 97 %
07.04.2022 03:40 8,7 C 8,7 C 8,7 C 85 % 999,2 hPa 0,0 l/m 11,3 km/h (2 Bft) SW 225 0 min 0,000 mm 0 W/m 6,3 C 5,4 C 25,7 km/h (4 Bft) 98 %
07.04.2022 03:50 8,6 C 8,6 C 8,7 C 85 % 999,2 hPa 0,0 l/m 9,7 km/h (2 Bft) SW 225 0 min 0,000 mm 0 W/m 6,2 C 6,2 C 27,4 km/h (4 Bft) 97 %
07.04.2022 04:00 8,8 C 8,6 C 8,8 C 84 % 999,0 hPa 0,0 l/m 14,5 km/h (3 Bft) SW 225 0 min 0,025 mm 0 W/m 6,2 C 3,9 C 32,2 km/h (5 Bft) 99 %
07.04.2022 04:10 8,9 C 8,8 C 8,9 C 84 % 999,0 hPa 0,0 l/m 11,3 km/h (2 Bft) SW 225 0 min 0,000 mm 0 W/m 6,3 C 5,6 C 25,7 km/h (4 Bft) 98 %
07.04.2022 04:20 8,9 C 8,8 C 8,9 C 83 % 998,8 hPa 0,0 l/m 12,9 km/h (3 Bft) SW 225 0 min 0,000 mm 0 W/m 6,2 C 4,8 C 32,2 km/h (5 Bft) 100 %
07.04.2022 04:30 8,9 C 8,9 C 9,0 C 84 % 998,8 hPa 0,0 l/m 14,5 km/h (3 Bft) SW 225 0 min 0,000 mm 0 W/m 6,3 C 4,0 C 29,0 km/h (5 Bft) 100 %
07.04.2022 04:40 9,0 C 8,9 C 9,0 C 83 % 998,7 hPa 0,0 l/m 17,7 km/h (3 Bft) S-SW 202 0 min 0,000 mm 0 W/m 6,3 C 2,8 C 32,2 km/h (5 Bft) 100 %
07.04.2022 04:50 9,0 C 8,9 C 9,1 C 83 % 998,5 hPa 0,0 l/m 17,7 km/h (3 Bft) S-SW 202 0 min 0,000 mm 0 W/m 6,3 C 2,8 C 41,8 km/h (6 Bft) 100 %
07.04.2022 05:00 8,9 C 8,9 C 9,0 C 84 % 998,4 hPa 0,0 l/m 17,7 km/h (3 Bft) S-SW 202 0 min 0,025 mm 0 W/m 6,3 C 2,7 C 35,4 km/h (5 Bft) 99 %
07.04.2022 05:10 8,8 C 8,8 C 8,9 C 84 % 998,4 hPa 0,0 l/m 17,7 km/h (3 Bft) S-SW 202 0 min 0,000 mm 0 W/m 6,2 C 2,6 C 35,4 km/h (5 Bft) 100 %
07.04.2022 05:20 8,8 C 8,8 C 8,8 C 84 % 998,4 hPa 0,0 l/m 17,7 km/h (3 Bft) S-SW 202 0 min 0,000 mm 0 W/m 6,2 C 2,6 C 37,0 km/h (5 Bft) 100 %
07.04.2022 05:30 8,8 C 8,8 C 8,8 C 85 % 998,2 hPa 0,0 l/m 19,3 km/h (3 Bft) S-SW 202 0 min 0,000 mm 0 W/m 6,4 C 2,0 C 35,4 km/h (5 Bft) 100 %
07.04.2022 05:40 8,7 C 8,7 C 8,8 C 85 % 998,1 hPa 0,0 l/m 14,5 km/h (3 Bft) S-SW 202 0 min 0,000 mm 0 W/m 6,3 C 3,8 C 27,4 km/h (4 Bft) 100 %
07.04.2022 05:50 8,7 C 8,6 C 8,7 C 85 % 998,0 hPa 0,0 l/m 17,7 km/h (3 Bft) S-SW 202 0 min 0,000 mm 0 W/m 6,3 C 2,4 C 32,2 km/h (5 Bft) 99 %
07.04.2022 06:00 8,8 C 8,7 C 8,8 C 85 % 997,8 hPa 0,0 l/m 16,1 km/h (3 Bft) S-SW 202 0 min 0,025 mm 0 W/m 6,4 C 3,2 C 40,2 km/h (6 Bft) 100 %
07.04.2022 06:10 8,9 C 8,7 C 8,9 C 84 % 997,8 hPa 0,0 l/m 19,3 km/h (3 Bft) S-SW 202 0 min 0,000 mm 0 W/m 6,3 C 2,1 C 46,7 km/h (6 Bft) 100 %
07.04.2022 06:20 8,6 C 8,6 C 8,9 C 87 % 997,7 hPa 0,0 l/m 22,5 km/h (4 Bft) S-SW 202 0 min 0,000 mm 0 W/m 6,6 C 0,7 C 51,5 km/h (7 Bft) 100 %
07.04.2022 06:30 8,6 C 8,5 C 8,6 C 86 % 997,4 hPa 0,0 l/m 16,1 km/h (3 Bft) S-SW 202 0 min 0,000 mm 0 W/m 6,4 C 3,0 C 33,8 km/h (5 Bft) 100 %
07.04.2022 06:40 8,7 C 8,6 C 8,7 C 85 % 997,6 hPa 0,0 l/m 17,7 km/h (3 Bft) S-SW 202 0 min 0,000 mm 0 W/m 6,3 C 2,4 C 30,6 km/h (5 Bft) 100 %
07.04.2022 06:50 8,8 C 8,7 C 8,8 C 85 % 997,7 hPa 0,0 l/m 17,7 km/h (3 Bft) S-SW 202 0 min 0,000 mm 0 W/m 6,4 C 2,6 C 29,0 km/h (5 Bft) 100 %
07.04.2022 07:00 8,8 C 8,8 C 8,8 C 85 % 997,5 hPa 0,0 l/m 17,7 km/h (3 Bft) S-SW 202 0 min 0,025 mm 0 W/m 6,4 C 2,6 C 33,8 km/h (5 Bft) 100 %
07.04.2022 07:10 8,9 C 8,8 C 8,9 C 84 % 997,3 hPa 0,0 l/m 17,7 km/h (3 Bft) S-SW 202 0 min 0,000 mm 0 W/m 6,3 C 2,7 C 38,6 km/h (5 Bft) 100 %
07.04.2022 07:20 8,8 C 8,8 C 8,9 C 85 % 997,3 hPa 0,0 l/m 12,9 km/h (3 Bft) S-SW 202 0 min 0,000 mm 12 W/m 6,4 C 4,7 C 30,6 km/h (5 Bft) 99 %
07.04.2022 07:30 8,8 C 8,7 C 8,8 C 85 % 997,2 hPa 0,0 l/m 16,1 km/h (3 Bft) S-SW 202 0 min 0,000 mm 18 W/m 6,4 C 3,2 C 29,0 km/h (5 Bft) 100 %
07.04.2022 07:40 8,9 C 8,8 C 8,9 C 85 % 997,1 hPa 0,0 l/m 20,9 km/h (4 Bft) S-SW 202 0 min 0,000 mm 23 W/m 6,5 C 1,6 C 40,2 km/h (6 Bft) 100 %
07.04.2022 07:50 8,9 C 8,8 C 8,9 C 85 % 996,9 hPa 0,0 l/m 16,1 km/h (3 Bft) S-SW 202 0 min 0,000 mm 83 W/m 6,5 C 3,3 C 32,2 km/h (5 Bft) 100 %
07.04.2022 08:00 9,0 C 8,9 C 9,0 C 85 % 996,8 hPa 0,0 l/m 17,7 km/h (3 Bft) S-SW 202 0 min 0,025 mm 81 W/m 6,6 C 2,8 C 30,6 km/h (5 Bft) 100 %
07.04.2022 08:10 9,2 C 8,9 C 9,2 C 83 % 996,7 hPa 0,0 l/m 17,7 km/h (3 Bft) S-SW 202 0 min 0,000 mm 95 W/m 6,5 C 3,1 C 35,4 km/h (5 Bft) 100 %
07.04.2022 08:20 9,4 C 9,2 C 9,4 C 82 % 996,4 hPa 0,0 l/m 16,1 km/h (3 Bft) S-SW 202 0 min 0,000 mm 54 W/m 6,5 C 3,9 C 37,0 km/h (5 Bft) 100 %
07.04.2022 08:30 9,5 C 9,4 C 9,5 C 81 % 996,2 hPa 0,0 l/m 16,1 km/h (3 Bft) S-SW 202 0 min 0,000 mm 35 W/m 6,4 C 4,1 C 33,8 km/h (5 Bft) 100 %
07.04.2022 08:40 9,3 C 9,3 C 9,5 C 83 % 996,1 hPa 0,0 l/m 9,7 km/h (2 Bft) S-SW 202 0 min 0,000 mm 32 W/m 6,6 C 7,0 C 30,6 km/h (5 Bft) 100 %
07.04.2022 08:50 9,1 C 9,1 C 9,3 C 85 % 995,9 hPa 0,0 l/m 9,7 km/h (2 Bft) S-SW 202 0 min 0,000 mm 33 W/m 6,7 C 6,8 C 25,7 km/h (4 Bft) 100 %
07.04.2022 09:00 8,9 C 8,9 C 9,1 C 86 % 995,9 hPa 0,0 l/m 8,0 km/h (2 Bft) S-SW 202 0 min 0,051 mm 47 W/m 6,7 C 7,7 C 24,1 km/h (4 Bft) 100 %
07.04.2022 09:10 8,7 C 8,7 C 8,9 C 87 % 995,7 hPa 0,0 l/m 12,9 km/h (3 Bft) S 180 0 min 0,000 mm 58 W/m 6,7 C 4,6 C 30,6 km/h (5 Bft) 100 %
07.04.2022 09:20 8,7 C 8,7 C 8,7 C 87 % 995,7 hPa 0,0 l/m 9,7 km/h (2 Bft) S 180 0 min 0,000 mm 44 W/m 6,7 C 6,3 C 32,2 km/h (5 Bft) 100 %
07.04.2022 09:30 8,7 C 8,7 C 8,7 C 87 % 995,3 hPa 0,0 l/m 9,7 km/h (2 Bft) S 180 0 min 0,000 mm 47 W/m 6,7 C 6,3 C 27,4 km/h (4 Bft) 100 %
07.04.2022 09:40 8,8 C 8,7 C 8,8 C 91 % 995,1 hPa 0,0 l/m 8,0 km/h (2 Bft) S 180 0 min 0,000 mm 95 W/m 7,4 C 7,6 C 24,1 km/h (4 Bft) 100 %
07.04.2022 09:50 8,9 C 8,8 C 8,9 C 86 % 995,0 hPa 0,0 l/m 8,0 km/h (2 Bft) S 180 0 min 0,000 mm 69 W/m 6,7 C 7,7 C 24,1 km/h (4 Bft) 100 %
07.04.2022 10:00 9,1 C 8,9 C 9,1 C 85 % 994,8 hPa 0,0 l/m 9,7 km/h (2 Bft) S 180 0 min 0,025 mm 84 W/m 6,7 C 6,8 C 25,7 km/h (4 Bft) 100 %
07.04.2022 10:10 9,6 C 9,1 C 9,6 C 82 % 994,8 hPa 0,0 l/m 16,1 km/h (3 Bft) S-SW 202 0 min 0,000 mm 72 W/m 6,7 C 4,2 C 37,0 km/h (5 Bft) 98 %
07.04.2022 10:20 9,6 C 9,6 C 9,6 C 83 % 994,6 hPa 0,0 l/m 9,7 km/h (2 Bft) S 180 0 min 0,000 mm 62 W/m 6,9 C 7,3 C 25,7 km/h (4 Bft) 100 %
07.04.2022 10:30 9,6 C 9,6 C 9,6 C 83 % 994,4 hPa 0,0 l/m 12,9 km/h (3 Bft) S 180 0 min 0,000 mm 54 W/m 6,9 C 5,6 C 30,6 km/h (5 Bft) 100 %
07.04.2022 10:40 9,7 C 9,6 C 9,7 C 83 % 994,2 hPa 0,0 l/m 11,3 km/h (2 Bft) S 180 0 min 0,000 mm 95 W/m 7,0 C 6,5 C 32,2 km/h (5 Bft) 100 %
07.04.2022 10:50 9,8 C 9,7 C 9,8 C 83 % 993,9 hPa 0,0 l/m 14,5 km/h (3 Bft) S 180 0 min 0,000 mm 98 W/m 7,1 C 5,1 C 29,0 km/h (5 Bft) 100 %
07.04.2022 11:00 9,9 C 9,8 C 9,9 C 83 % 993,9 hPa 0,0 l/m 12,9 km/h (3 Bft) S 180 0 min 0,051 mm 62 W/m 7,2 C 6,0 C 29,0 km/h (5 Bft) 100 %
07.04.2022 11:10 9,9 C 9,9 C 9,9 C 84 % 993,8 hPa 0,2 l/m 12,9 km/h (3 Bft) S-SW 202 0 min 0,000 mm 70 W/m 7,3 C 6,0 C 30,6 km/h (5 Bft) 100 %
07.04.2022 11:20 9,6 C 9,6 C 9,9 C 87 % 994,0 hPa 0,6 l/m 17,7 km/h (3 Bft) S-SW 202 0 min 0,000 mm 65 W/m 7,5 C 3,6 C 32,2 km/h (5 Bft) 100 %
07.04.2022 11:30 9,3 C 9,3 C 9,6 C 88 % 993,8 hPa 0,2 l/m 14,5 km/h (3 Bft) S-SW 202 0 min 0,000 mm 46 W/m 7,4 C 4,5 C 25,7 km/h (4 Bft) 100 %
07.04.2022 11:40 9,3 C 9,3 C 9,3 C 89 % 993,7 hPa 0,0 l/m 8,0 km/h (2 Bft) S-SW 202 0 min 0,000 mm 70 W/m 7,6 C 8,1 C 19,3 km/h (3 Bft) 100 %
07.04.2022 11:50 9,4 C 9,3 C 9,4 C 88 % 993,5 hPa 0,0 l/m 11,3 km/h (2 Bft) S-SW 202 0 min 0,000 mm 86 W/m 7,5 C 6,2 C 41,8 km/h (6 Bft) 100 %
07.04.2022 12:00 9,6 C 9,4 C 9,6 C 87 % 993,4 hPa 0,0 l/m 17,7 km/h (3 Bft) S-SW 202 0 min 0,051 mm 90 W/m 7,5 C 3,6 C 35,4 km/h (5 Bft) 100 %
07.04.2022 12:10 9,8 C 9,6 C 9,8 C 85 % 993,1 hPa 0,2 l/m 22,5 km/h (4 Bft) S-SW 202 0 min 0,000 mm 72 W/m 7,4 C 2,3 C 45,1 km/h (6 Bft) 100 %
07.04.2022 12:20 10,1 C 9,8 C 10,1 C 84 % 992,9 hPa 0,0 l/m 25,7 km/h (4 Bft) S-SW 202 0 min 0,000 mm 102 W/m 7,5 C 1,8 C 53,1 km/h (7 Bft) 90 %
07.04.2022 12:30 10,4 C 10,1 C 10,4 C 81 % 992,4 hPa 0,0 l/m 27,4 km/h (4 Bft) S-SW 202 0 min 0,000 mm 121 W/m 7,3 C 1,8 C 48,3 km/h (6 Bft) 100 %
07.04.2022 12:40 10,8 C 10,5 C 10,8 C 81 % 992,1 hPa 0,0 l/m 27,4 km/h (4 Bft) S-SW 202 0 min 0,000 mm 135 W/m 7,7 C 2,3 C 48,3 km/h (6 Bft) 100 %
07.04.2022 12:50 11,1 C 10,8 C 11,1 C 80 % 992,0 hPa 0,0 l/m 27,4 km/h (4 Bft) S-SW 202 10 min 0,000 mm 176 W/m 7,8 C 2,8 C 51,5 km/h (7 Bft) 100 %
07.04.2022 13:00 11,2 C 11,1 C 11,2 C 80 % 991,7 hPa 0,0 l/m 24,1 km/h (4 Bft) S-SW 202 10 min 0,102 mm 171 W/m 7,9 C 3,7 C 46,7 km/h (6 Bft) 100 %
07.04.2022 13:10 11,3 C 11,2 C 11,3 C 79 % 991,7 hPa 0,0 l/m 24,1 km/h (4 Bft) S-SW 202 0 min 0,000 mm 116 W/m 7,8 C 3,8 C 46,7 km/h (6 Bft) 99 %
07.04.2022 13:30 11,9 C 11,2 C 11,9 C 76 % 991,3 hPa 0,0 l/m 21,9 km/h (4 Bft) SW 216 0 min 0,000 mm 79 W/m 7,8 C 5,2 C 41,8 km/h (6 Bft) 97 %
07.04.2022 13:40 12,1 C 11,9 C 12,1 C 75 % 991,1 hPa 0,0 l/m 27,9 km/h (4 Bft) S-SW 212 0 min 0,000 mm 128 W/m 7,8 C 4,0 C 51,5 km/h (7 Bft) 97 %
07.04.2022 13:50 12,3 C 12,1 C 12,3 C 75 % 991,0 hPa 0,0 l/m 24,4 km/h (4 Bft) W 262 0 min 0,000 mm 100 W/m 8,0 C 5,1 C 53,1 km/h (7 Bft) 98 %
07.04.2022 14:00 12,5 C 12,3 C 12,6 C 74 % 991,1 hPa 0,0 l/m 27,2 km/h (4 Bft) W-SW 252 0 min 0,000 mm 128 W/m 8,0 C 4,7 C 53,1 km/h (7 Bft) 97 %
07.04.2022 14:10 12,7 C 12,5 C 12,7 C 74 % 991,1 hPa 0,0 l/m 22,3 km/h (4 Bft) SW 222 0 min 0,104 mm 120 W/m 8,2 C 6,1 C 51,5 km/h (7 Bft) 98 %
07.04.2022 14:20 12,9 C 12,7 C 12,9 C 73 % 990,9 hPa 0,0 l/m 34,2 km/h (5 Bft) S 180 10 min 0,000 mm 274 W/m 8,2 C 4,0 C 78,9 km/h (9 Bft) 97 %
07.04.2022 14:30 13,1 C 12,9 C 13,1 C 73 % 990,8 hPa 0,0 l/m 24,6 km/h (4 Bft) S-SW 208 10 min 0,000 mm 311 W/m 8,4 C 6,1 C 57,9 km/h (7 Bft) 98 %
07.04.2022 14:40 13,2 C 13,1 C 13,2 C 73 % 990,6 hPa 0,0 l/m 35,1 km/h (5 Bft) SW 236 10 min 0,000 mm 214 W/m 8,5 C 4,3 C 64,4 km/h (8 Bft) 98 %
07.04.2022 14:50 13,1 C 13,1 C 13,2 C 72 % 990,5 hPa 0,0 l/m 34,3 km/h (5 Bft) W-SW 243 10 min 0,000 mm 206 W/m 8,2 C 4,3 C 64,4 km/h (8 Bft) 98 %
07.04.2022 15:00 13,1 C 13,1 C 13,1 C 73 % 990,3 hPa 0,0 l/m 30,6 km/h (5 Bft) W-SW 257 10 min 0,203 mm 279 W/m 8,4 C 4,9 C 64,4 km/h (8 Bft) 98 %
07.04.2022 15:10 13,2 C 13,1 C 13,2 C 73 % 990,1 hPa 0,0 l/m 22,0 km/h (4 Bft) W 277 0 min 0,000 mm 141 W/m 8,5 C 6,9 C 49,9 km/h (6 Bft) 97 %
07.04.2022 15:20 13,3 C 13,2 C 13,3 C 73 % 990,0 hPa 0,0 l/m 29,5 km/h (5 Bft) SW 234 0 min 0,000 mm 83 W/m 8,6 C 5,4 C 56,3 km/h (7 Bft) 98 %
07.04.2022 15:30 13,3 C 13,3 C 13,3 C 72 % 989,8 hPa 0,0 l/m 32,0 km/h (5 Bft) S 191 10 min 0,000 mm 160 W/m 8,4 C 4,9 C 69,2 km/h (8 Bft) 97 %
07.04.2022 15:40 13,2 C 13,2 C 13,3 C 72 % 989,7 hPa 0,0 l/m 24,9 km/h (4 Bft) S-SW 209 0 min 0,000 mm 118 W/m 8,3 C 6,2 C 53,1 km/h (7 Bft) 97 %
07.04.2022 15:50 13,3 C 13,2 C 13,3 C 72 % 989,5 hPa 0,0 l/m 30,3 km/h (5 Bft) W 275 0 min 0,000 mm 127 W/m 8,4 C 5,2 C 62,8 km/h (8 Bft) 98 %
07.04.2022 16:00 13,3 C 13,3 C 13,3 C 72 % 989,7 hPa 0,0 l/m 34,0 km/h (5 Bft) SW 234 0 min 0,000 mm 107 W/m 8,4 C 4,6 C 67,6 km/h (8 Bft) 97 %
07.04.2022 16:10 13,2 C 13,2 C 13,3 C 73 % 989,6 hPa 0,0 l/m 33,2 km/h (5 Bft) W-NW 284 0 min 0,178 mm 127 W/m 8,5 C 4,6 C 66,0 km/h (8 Bft) 98 %
07.04.2022 16:20 13,2 C 13,2 C 13,2 C 73 % 989,6 hPa 0,0 l/m 32,6 km/h (5 Bft) S-SW 204 0 min 0,000 mm 121 W/m 8,5 C 4,7 C 64,4 km/h (8 Bft) 97 %
07.04.2022 16:30 12,9 C 12,9 C 13,2 C 76 % 989,9 hPa 0,0 l/m 33,6 km/h (5 Bft) S-SW 192 0 min 0,000 mm 104 W/m 8,8 C 4,1 C 66,0 km/h (8 Bft) 98 %
07.04.2022 16:40 12,6 C 12,6 C 12,9 C 77 % 989,9 hPa 0,0 l/m 29,3 km/h (5 Bft) SW 225 0 min 0,000 mm 56 W/m 8,7 C 4,4 C 57,9 km/h (7 Bft) 97 %
07.04.2022 16:50 12,2 C 12,2 C 12,6 C 81 % 990,0 hPa 0,2 l/m 26,5 km/h (4 Bft) SW 223 0 min 0,000 mm 72 W/m 9,0 C 4,5 C 64,4 km/h (8 Bft) 97 %
07.04.2022 17:00 11,6 C 11,6 C 12,2 C 84 % 990,0 hPa 0,0 l/m 30,9 km/h (5 Bft) S-SW 210 0 min 0,127 mm 32 W/m 9,0 C 2,7 C 61,2 km/h (7 Bft) 98 %
07.04.2022 17:10 11,0 C 11,0 C 11,6 C 87 % 990,2 hPa 0,6 l/m 19,9 km/h (4 Bft) W-SW 248 0 min 0,000 mm 32 W/m 8,9 C 4,6 C 41,8 km/h (6 Bft) 98 %
07.04.2022 17:20 10,7 C 10,7 C 11,0 C 89 % 990,1 hPa 0,4 l/m 18,6 km/h (3 Bft) W-SW 248 0 min 0,000 mm 40 W/m 9,0 C 4,6 C 45,1 km/h (6 Bft) 100 %
07.04.2022 17:30 10,5 C 10,5 C 10,7 C 90 % 990,2 hPa 0,2 l/m 15,3 km/h (3 Bft) W-SW 237 0 min 0,000 mm 44 W/m 8,9 C 5,6 C 43,5 km/h (6 Bft) 100 %
07.04.2022 17:40 10,4 C 10,4 C 10,5 C 90 % 990,7 hPa 1,6 l/m 16,0 km/h (3 Bft) W-SW 242 0 min 0,000 mm 23 W/m 8,8 C 5,2 C 46,7 km/h (6 Bft) 100 %
07.04.2022 17:50 10,2 C 10,2 C 10,4 C 91 % 990,6 hPa 0,8 l/m 13,4 km/h (3 Bft) SW 229 0 min 0,000 mm 35 W/m 8,8 C 6,1 C 32,2 km/h (5 Bft) 100 %
07.04.2022 18:00 10,1 C 10,1 C 10,2 C 91 % 990,6 hPa 0,2 l/m 14,7 km/h (3 Bft) S 186 0 min 0,026 mm 19 W/m 8,7 C 5,4 C 37,0 km/h (5 Bft) 100 %
07.04.2022 18:10 10,1 C 10,1 C 10,1 C 91 % 990,6 hPa 0,0 l/m 20,3 km/h (4 Bft) S-SW 198 0 min 0,000 mm 47 W/m 8,7 C 3,3 C 46,7 km/h (6 Bft) 100 %
07.04.2022 18:20 10,2 C 10,1 C 10,2 C 90 % 990,7 hPa 0,0 l/m 15,1 km/h (3 Bft) SW 223 0 min 0,000 mm 30 W/m 8,6 C 5,3 C 43,5 km/h (6 Bft) 100 %
07.04.2022 18:30 10,2 C 10,2 C 10,2 C 91 % 991,0 hPa 0,0 l/m 15,2 km/h (3 Bft) W-SW 253 0 min 0,000 mm 26 W/m 8,8 C 5,3 C 38,6 km/h (5 Bft) 100 %
07.04.2022 18:40 10,1 C 10,1 C 10,2 C 90 % 991,1 hPa 0,0 l/m 15,5 km/h (3 Bft) W-SW 252 0 min 0,000 mm 33 W/m 8,5 C 5,0 C 37,0 km/h (5 Bft) 99 %
07.04.2022 18:50 10,0 C 10,0 C 10,1 C 90 % 991,2 hPa 0,0 l/m 16,2 km/h (3 Bft) S-SW 212 0 min 0,000 mm 62 W/m 8,4 C 4,6 C 33,8 km/h (5 Bft) 100 %
07.04.2022 19:00 9,8 C 9,8 C 10,0 C 89 % 991,3 hPa 0,0 l/m 18,7 km/h (3 Bft) W-SW 247 0 min 0,025 mm 53 W/m 8,1 C 3,5 C 35,4 km/h (5 Bft) 99 %
07.04.2022 19:10 9,7 C 9,7 C 9,8 C 89 % 991,3 hPa 0,0 l/m 16,5 km/h (3 Bft) S-SW 206 0 min 0,000 mm 39 W/m 8,0 C 4,2 C 32,2 km/h (5 Bft) 91 %
07.04.2022 19:20 9,7 C 9,7 C 9,7 C 89 % 991,6 hPa 0,0 l/m 16,3 km/h (3 Bft) W-SW 237 0 min 0,000 mm 32 W/m 8,0 C 4,2 C 32,2 km/h (5 Bft) 100 %
07.04.2022 19:30 9,7 C 9,7 C 9,7 C 89 % 991,8 hPa 0,0 l/m 13,2 km/h (3 Bft) W-SW 249 0 min 0,000 mm 26 W/m 8,0 C 5,6 C 25,7 km/h (4 Bft) 100 %
07.04.2022 19:40 9,7 C 9,7 C 9,7 C 89 % 992,0 hPa 0,0 l/m 10,2 km/h (2 Bft) S-SW 205 0 min 0,000 mm 16 W/m 8,0 C 7,1 C 25,7 km/h (4 Bft) 100 %
07.04.2022 19:50 9,7 C 9,7 C 9,7 C 88 % 992,4 hPa 0,0 l/m 13,4 km/h (3 Bft) S-SW 208 0 min 0,000 mm 9 W/m 7,8 C 5,5 C 33,8 km/h (5 Bft) 100 %
07.04.2022 20:00 9,7 C 9,7 C 9,7 C 88 % 992,4 hPa 0,0 l/m 10,9 km/h (2 Bft) SW 221 0 min 0,000 mm 5 W/m 7,8 C 6,8 C 35,4 km/h (5 Bft) 100 %
07.04.2022 20:10 9,7 C 9,7 C 9,7 C 86 % 992,6 hPa 0,0 l/m 12,5 km/h (3 Bft) W 274 0 min 0,025 mm 0 W/m 7,5 C 5,9 C 33,8 km/h (5 Bft) 100 %
07.04.2022 20:20 9,8 C 9,7 C 9,9 C 85 % 992,7 hPa 0,0 l/m 10,1 km/h (2 Bft) SW 226 0 min 0,000 mm 0 W/m 7,4 C 7,3 C 27,4 km/h (4 Bft) 100 %
07.04.2022 20:30 9,8 C 9,8 C 9,9 C 84 % 992,9 hPa 0,0 l/m 7,9 km/h (2 Bft) SW 233 0 min 0,000 mm 0 W/m 7,2 C 8,7 C 27,4 km/h (4 Bft) 100 %
07.04.2022 20:40 9,9 C 9,8 C 9,9 C 77 % 993,3 hPa 0,0 l/m 17,2 km/h (3 Bft) W-SW 255 0 min 0,000 mm 0 W/m 6,1 C 4,1 C 53,1 km/h (7 Bft) 100 %
07.04.2022 20:50 10,2 C 9,9 C 10,2 C 73 % 993,7 hPa 0,0 l/m 18,5 km/h (3 Bft) SW 226 0 min 0,000 mm 0 W/m 5,6 C 4,0 C 54,7 km/h (7 Bft) 100 %
07.04.2022 21:00 10,2 C 10,2 C 10,2 C 72 % 993,9 hPa 0,0 l/m 12,9 km/h (3 Bft) W-SW 256 0 min 0,026 mm 0 W/m 5,4 C 6,3 C 40,2 km/h (6 Bft) 100 %
07.04.2022 21:10 10,2 C 10,2 C 10,2 C 67 % 994,2 hPa 0,0 l/m 16,1 km/h (3 Bft) W-SW 247 0 min 0,000 mm 0 W/m 4,4 C 4,9 C 45,1 km/h (6 Bft) 100 %
07.04.2022 21:20 10,1 C 10,1 C 10,2 C 63 % 994,5 hPa 0,0 l/m 17,7 km/h (3 Bft) W-SW 247 0 min 0,000 mm 0 W/m 3,4 C 4,2 C 51,5 km/h (7 Bft) 99 %
07.04.2022 21:30 10,0 C 10,0 C 10,1 C 62 % 994,7 hPa 0,0 l/m 19,3 km/h (3 Bft) W 270 0 min 0,000 mm 0 W/m 3,1 C 3,5 C 53,1 km/h (7 Bft) 100 %
07.04.2022 21:40 9,8 C 9,8 C 10,0 C 62 % 995,0 hPa 0,0 l/m 11,3 km/h (2 Bft) W 270 0 min 0,000 mm 0 W/m 2,9 C 6,6 C 43,5 km/h (6 Bft) 100 %
07.04.2022 21:50 9,6 C 9,6 C 9,8 C 61 % 995,1 hPa 0,0 l/m 9,7 km/h (2 Bft) W 270 0 min 0,000 mm 0 W/m 2,5 C 7,3 C 45,1 km/h (6 Bft) 100 %
07.04.2022 22:00 9,6 C 9,6 C 9,6 C 61 % 995,5 hPa 0,0 l/m 11,3 km/h (2 Bft) W 270 0 min 0,051 mm 0 W/m 2,5 C 6,4 C 38,6 km/h (5 Bft) 100 %
07.04.2022 22:10 9,6 C 9,6 C 9,6 C 60 % 995,5 hPa 0,0 l/m 11,3 km/h (2 Bft) W 270 0 min 0,000 mm 0 W/m 2,2 C 6,4 C 41,8 km/h (6 Bft) 100 %
07.04.2022 22:20 9,5 C 9,5 C 9,6 C 61 % 995,8 hPa 0,0 l/m 11,3 km/h (2 Bft) W 270 0 min 0,000 mm 0 W/m 2,4 C 6,3 C 32,2 km/h (5 Bft) 100 %
07.04.2022 22:30 9,3 C 9,3 C 9,5 C 62 % 996,0 hPa 0,0 l/m 11,3 km/h (2 Bft) W 270 0 min 0,000 mm 0 W/m 2,4 C 6,1 C 38,6 km/h (5 Bft) 100 %
07.04.2022 22:40 9,4 C 9,3 C 9,4 C 62 % 996,0 hPa 0,0 l/m 12,9 km/h (3 Bft) W 270 0 min 0,000 mm 0 W/m 2,5 C 5,4 C 37,0 km/h (5 Bft) 100 %
07.04.2022 22:50 9,3 C 9,3 C 9,4 C 62 % 996,3 hPa 0,0 l/m 9,7 km/h (2 Bft) W-SW 247 0 min 0,000 mm 0 W/m 2,4 C 7,0 C 33,8 km/h (5 Bft) 100 %
07.04.2022 23:00 9,2 C 9,2 C 9,3 C 63 % 996,3 hPa 0,0 l/m 9,7 km/h (2 Bft) W 270 0 min 0,051 mm 0 W/m 2,5 C 6,9 C 38,6 km/h (5 Bft) 100 %
07.04.2022 23:10 9,1 C 9,1 C 9,2 C 63 % 996,6 hPa 0,0 l/m 8,0 km/h (2 Bft) W-SW 247 0 min 0,000 mm 0 W/m 2,4 C 7,9 C 32,2 km/h (5 Bft) 100 %
07.04.2022 23:20 9,1 C 9,1 C 9,2 C 63 % 996,6 hPa 0,0 l/m 11,3 km/h (2 Bft) W 270 0 min 0,000 mm 0 W/m 2,4 C 5,9 C 35,4 km/h (5 Bft) 100 %
07.04.2022 23:30 9,1 C 9,1 C 9,1 C 62 % 997,0 hPa 0,0 l/m 12,9 km/h (3 Bft) W 270 0 min 0,000 mm 0 W/m 2,2 C 5,0 C 40,2 km/h (6 Bft) 100 %
07.04.2022 23:40 9,0 C 9,0 C 9,1 C 62 % 997,2 hPa 0,0 l/m 11,3 km/h (2 Bft) W 270 0 min 0,000 mm 0 W/m 2,1 C 5,7 C 37,0 km/h (5 Bft) 99 %
07.04.2022 23:50 9,1 C 9,0 C 9,1 C 61 % 997,3 hPa 0,0 l/m 14,5 km/h (3 Bft) W-SW 247 0 min 0,000 mm 0 W/m 2,0 C 4,3 C 38,6 km/h (5 Bft) 100 %
_ Min-Zeit 06:30 06:30 06:30 22:10 15:50 - 02:20 - - - - - 23:50 06:20 11:40 00:10
Minimum _ 8,5 C 8,5 C 8,6 C 60 % 989,5 hPa - 6,4 km/h (2 Bft) - - - - - 2,0 C 0,7 C 19,3 km/h (3 Bft) 78 %
_ Max-Zeit 15:20 15:30 15:20 09:40 00:00 17:40 14:40 - - 12:50 15:00 14:30 16:50 02:20 14:20 04:50
Maximum _ 13,3 C 13,3 C 13,3 C 91 % 1000,7 hPa 1,6 l/m 35,1 km/h
SW (5 Bft)
- - 10 min 0,203 mm 311 W/m 9,0 C 8,8 C 78,9 km/h
S-SW (9 Bft)
100 %
Durchschnitt _ 10,0 C 9,9 C 10,0 C 81 % 995,0 hPa #6,0 l/m 16,6 km/h (3 Bft) S-SW - #1:20 h #1,296 mm 83 W/m 6,8 C 5,0 C 38,3 km/h (5 Bft) 99 %
PRIVATE WETTERSTATION BILLIGHEIM-ALLFELD - www.neckar-odenwald-wetter.de - Holger Sonntag